Terminal Aerodrome Forecast
Issued by NWS Topeka, KS

Home | Current Version | Previous Version | Text Only | Print | Product List | Glossary Off
Versions: 1 2 3 4 5 6 7 8 9 10 11 12 13 14 15 16

000
FTUS43 KTOP 311700
TAFTOP
TAF
KTOP 311727Z 3118/0118 15008KT 5SM -RA BR SCT012 OVC020
     FM312200 14008KT 3SM -RA BR OVC008
     FM010300 13009KT 1 1/2SM -RA BR OVC006
     FM011200 31013G26KT 4SM -SN BR OVC009=

USA.gov is the U.S. government's official web portal to all federal, state and local government web resources and services.